Weather Roundup
Issued by NWS Springfield, MO

Home | Current Version | Previous Version | Text Only | Print | Product List | Glossary On
Versions: 1 2 3 4 5 6 7 8 9 10 11 12 13 14 15 16 17 18 19 20 21 22 23 24 25 26 27 28 29 30 31 32 33 34 35 36 37 38 39 40 41 42 43 44 45 46 47 48 49 50
000
NZUS99 KSGF 230507
HRRSGF

HOURLY WEATHER
NATIONAL WEATHER SERVICE SPRINGFIELD MO
1100 PM CST MON DEC 22 2014

......SGF CWA......

CITY           SKY/WX    TMP DP  RH WIND       PRES   REMARKS
SPRINGFIELD    CLEAR     40  37  89 W8        29.62R WCI  34
JOPLIN         CLEAR     41  39  93 W7        29.64R
WEST PLAINS    CLOUDY    48  45  89 SW7       29.63R
ROLLA          CLOUDY    46  43  89 SW12      29.54S
OSAGE BEACH    CLEAR     45  39  81 SW8       29.58S
BRANSON        CLEAR     41  41 100 CALM      29.65R

......SURROUNDING SGF CWA......

CITY           SKY/WX    TMP DP  RH WIND       PRES   REMARKS
CHANUTE        PTCLDY    39  36  89 SW9       29.63R WCI  33
PARSONS        PTCLDY    39  37  92 CALM      29.66S
COFFEYVILLE    CLEAR     39  36  89 CALM      29.64F
EMPORIA        CLOUDY    37  33  85 SW8       29.62R WCI  31
GROVE OK       PTCLDY    45  45 100 CALM      29.65F
ROGERS AR      CLEAR     42  41  96 SW7       29.66R
SILOAM SPRINGS PTCLDY    39  34  81 CALM      29.67S
HARRISON AR    CLEAR     45  43  93 W3        29.66R
NEAR YELLVILLE CLOUDY    48  41  76 SW6       29.66R

......KANSAS AND MISSOURI......

CITY           SKY/WX    TMP DP  RH WIND       PRES   REMARKS
KANSAS CTY INT PTCLDY    38  36  92 SW9       29.54R WCI  31
DOWNTOWN KC    CLEAR     43  37  79 SW10      29.56R
COLUMBIA       CLOUDY    45  43  93 SW13      29.54R
SEDALIA        CLOUDY    43  40  89 SW12      29.56R
ST JOSEPH      MOCLDY    40  36  86 W10       29.52R WCI  33
ST LOUIS       CLOUDY    52  48  86 SW10G20   29.54S
SPIRIT OF STL  PTCLDY    50  46  87 SW9       29.54R
KIRKSVILLE     CLOUDY    44  41  89 SW12      29.46R
WICHITA        PTCLDY    42  29  59 W13       29.65R
TOPEKA         CLOUDY    43  34  70 W7        29.58R
OLATHE         CLEAR     40  36  86 W8        29.57R WCI  34

......TENNESSEE......

CITY           SKY/WX    TMP DP  RH WIND       PRES   REMARKS
MEMPHIS        CLOUDY    56  54  93 SW3       29.65F
NASHVILLE      CLOUDY    52  50  93 S13       29.73F

......ARKANSAS.......

CITY           SKY/WX    TMP DP  RH WIND       PRES   REMARKS
FAYETTEVILLE   FOG       38  38 100 CALM      29.66R VSB 1/4
FT SMITH       PTCLDY    42  40  92 SW3       29.67R
LITTLE ROCK    CLOUDY    54  48  82 NW5       29.67S

......OKLAHOMA.......

CITY           SKY/WX    TMP DP  RH WIND       PRES   REMARKS
TULSA          MOCLDY    43  38  82 NW3       29.65F
PONCA CITY     CLEAR     41  33  73 NW8       29.66S
MCALESTER      CLOUDY    42  39  89 S5        29.70R
OKLAHOMA CITY  CLOUDY    46  34  62 NW9       29.70R

......IOWA............

CITY           SKY/WX    TMP DP  RH WIND       PRES   REMARKS
DES MOINES     LGT RAIN  40  38  93 E7        29.43F FOG
QUAD CITIES    LGT RAIN  42  41  96 E7        29.48F FOG

......ILLINOIS........

CITY           SKY/WX    TMP DP  RH WIND       PRES   REMARKS
QUINCY         CLOUDY    46  45  96 S12       29.48R
CHICAGO        CLOUDY    41  39  93 E14       29.60F FOG




USA.gov is the U.S. government's official web portal to all federal, state and local government web resources and services.